DW0455 Weather Reports


time (UTC)temp
C
wind
direction
speed
KPH
gust
KPH
rain 1hr
cm
rain 24hr
cm
rain mn
cm
humidity
%
barometer
mb
20260509213033 31 194 1.6 8.0 0.00 0.00 0.00 41 1007.3
20260509211529 31 107 3.2 14.5 0.00 0.00 0.00 42 1007.4
20260509210033 31 5 3.2 6.4 0.00 0.00 0.00 42 1007.7
20260509204527 31 90 3.2 9.7 0.00 0.00 0.00 39 1007.9
20260509203027 31 355 0.0 4.8 0.00 0.00 0.00 39 1008.1
20260509201526 31 167 0.0 3.2 0.00 0.00 0.00 40 1008.3
20260509200024 30 28 3.2 9.7 0.00 0.00 0.00 37 1008.5
20260509194526 30 355 3.2 9.7 0.00 0.00 0.00 39 1008.7
20260509193028 30 23 4.8 12.9 0.00 0.00 0.00 43 1008.8
20260509191530 30 34 1.6 8.0 0.00 0.00 0.00 44 1008.9
20260509190018 30 344 1.6 9.7 0.00 0.00 0.00 49 1009.0
20260509184531 30 16 3.2 9.7 0.00 0.00 0.00 52 1009.2
20260509183017 30 10 4.8 12.9 0.00 0.00 0.00 47 1009.3
20260509181513 30 248 1.6 8.0 0.00 0.00 0.00 48 1009.5
20260509180016 30 24 3.2 8.0 0.00 0.00 0.00 49 1009.7
20260509174517 28 18 1.6 8.0 0.00 0.00 0.00 51 1009.8
20260509173007 29 338 1.6 9.7 0.00 0.00 0.00 50 1009.8
20260509171503 28 350 1.6 9.7 0.00 0.00 0.00 52 1009.9
20260509170109 28 15 4.8 8.0 0.00 0.00 0.00 51 1009.9
20260509164559 28 17 3.2 12.9 0.00 0.00 0.00 51 1010.2
20260509163057 27 17 3.2 9.7 0.00 0.00 0.00 56 1010.4
20260509161549 27 355 3.2 8.0 0.00 0.00 0.00 53 1010.5
20260509160044 26 5 1.6 8.0 0.00 0.00 0.00 56 1010.5
20260509154540 26 355 3.2 9.7 0.00 0.00 0.00 57 1010.2
20260509153051 25 23 4.8 14.5 0.00 0.00 0.00 60 1010.2
20260509151534 25 313 1.6 9.7 0.00 0.00 0.00 64 1010.2
20260509150031 24 253 3.2 9.7 0.00 0.00 0.00 67 1010.2
20260509144531 24 38 3.2 9.7 0.00 0.00 0.00 66 1010.3
20260509143024 23 30 3.2 8.0 0.00 0.00 0.00 69 1010.4
20260509141522 23 19 1.6 8.0 0.00 0.00 0.00 72 1010.6
20260509140019 22 5 3.2 6.4 0.00 0.00 0.00 74 1010.7
20260509134516 22 5 1.6 8.0 0.00 0.00 0.00 76 1010.6
20260509133013 21 271 1.6 6.4 0.00 0.00 0.00 77 1010.6
20260509131510 20 273 1.6 6.4 0.00 0.00 0.00 78 1010.4
20260509130022 20 355 0.0 4.8 0.00 0.00 0.00 79 1010.5
20260509124508 19 325 1.6 4.8 0.00 0.00 0.00 79 1010.5
20260509123005 18 351 0.0 3.2 0.00 0.00 0.00 80 1010.3
20260509121501 18 351 0.0 6.4 0.00 0.00 0.00 79 1010.2
20260509120058 18 351 0.0 4.8 0.00 0.00 0.00 78 1010.0
20260509114600 18 266 0.0 4.8 0.00 0.00 0.00 78 1010.0
20260509113058 18 260 0.0 3.2 0.00 0.00 0.00 78 1009.6
20260509111551 18 259 0.0 3.2 0.00 0.00 0.00 77 1009.1
20260509110050 18 234 3.2 6.4 0.00 0.00 0.00 77 1009.1
20260509104547 19 220 3.2 6.4 0.00 0.00 0.00 76 1009.1
20260509103057 19 252 3.2 8.0 0.00 0.00 0.00 75 1009.3
20260509101558 20 262 1.6 4.8 0.00 0.00 0.00 75 1009.2
20260509100042 20 32 0.0 4.8 0.00 0.00 0.00 75 1009.0
20260509094546 20 55 1.6 6.4 0.00 0.00 0.00 76 1009.0
20260509093041 20 355 0.0 6.4 0.00 0.00 0.00 78 1008.6
20260509091542 20 355 4.8 17.7 0.00 0.00 0.00 78 1007.6
20260509090047 20 139 3.2 8.0 0.00 0.00 0.00 77 1006.1
20260509084542 20 238 4.8 11.3 0.00 0.00 0.00 78 1006.3
20260509083050 20 160 1.6 8.0 0.00 0.00 0.00 78 1006.3
20260509081533 20 219 3.2 11.3 0.00 0.00 0.00 79 1006.8
20260509080031 20 123 3.2 11.3 0.00 0.00 0.00 80 1006.6
20260509074528 20 97 1.6 6.4 0.00 0.00 0.00 79 1007.7
20260509073030 20 221 0.0 4.8 0.00 0.00 0.00 76 1008.9
20260509071526 20 243 4.8 12.9 0.00 0.00 0.00 80 1009.5
20260509070119 20 239 11.3 17.7 0.00 0.00 0.00 85 1010.3
20260509064516 20 242 4.8 14.5 0.00 0.00 0.00 86 1011.2
20260509063021 20 267 1.6 4.8 0.00 0.00 0.00 85 1011.5
20260509061523 20 255 1.6 4.8 0.00 0.00 0.00 85 1011.3
20260509060019 20 340 1.6 4.8 0.00 0.00 0.00 85 1011.2
20260509054517 20 340 0.0 3.2 0.00 0.00 0.00 85 1010.8
20260509053018 20 340 1.6 4.8 0.00 0.00 0.00 84 1011.1
20260509051515 20 337 1.6 4.8 0.00 0.00 0.00 83 1011.1
20260509050017 21 153 0.0 3.2 0.00 0.00 0.00 82 1010.1
20260509044510 21 153 0.0 3.2 0.00 0.00 0.00 82 1009.8
20260509043010 21 153 0.0 4.8 0.00 0.00 0.00 82 1009.8
20260509041509 21 189 1.6 4.8 0.00 0.00 0.00 82 1009.8
20260509040023 21 119 0.0 3.2 0.00 0.00 0.00 80 1009.9
20260509034508 21 68 0.0 3.2 0.00 0.00 0.00 80 1009.9
20260509033007 22 78 1.6 4.8 0.00 0.00 0.00 80 1009.3
20260509031508 22 102 3.2 11.3 0.00 0.00 0.00 79 1008.9
20260509030006 22 154 3.2 8.0 0.00 0.00 0.00 79 1008.3
20260509024508 22 148 1.6 8.0 0.00 0.00 0.00 78 1008.1
20260509023008 22 146 3.2 11.3 0.00 0.00 0.00 78 1007.9
20260509021505 22 163 1.6 9.7 0.00 0.00 0.00 77 1007.7
20260509020003 22 153 3.2 9.7 0.00 0.00 0.00 77 1007.6
20260509014503 22 131 1.6 4.8 0.00 0.00 0.00 76 1008.1
20260509013002 22 171 1.6 3.2 0.00 0.00 0.00 76 1008.2
20260509011501 22 178 1.6 4.8 0.00 0.00 0.00 75 1008.2
20260509010001 22 178 0.0 3.2 0.00 0.00 0.00 74 1007.8
20260509004613 22 175 1.6 8.0 0.00 0.00 0.00 74 1007.7
20260509003100 22 169 3.2 8.0 0.00 0.00 0.00 74 1007.6
20260509001558 22 107 3.2 11.3 0.00 0.00 0.00 74 1007.6
20260509000100 22 132 1.6 8.0 0.00 0.00 0.00 74 1008.0
20260508234557 22 156 1.6 11.3 0.00 0.00 0.00 73 1008.0
20260508233057 22 123 3.2 11.3 0.00 0.00 0.00 73 1008.1
20260508231553 22 162 3.2 9.7 0.00 0.00 0.00 72 1008.0
20260508230053 23 251 3.2 12.9 0.00 0.00 0.00 72 1008.0
20260508224624 23 130 4.8 14.5 0.00 0.00 0.00 70 1008.2
20260508223055 23 181 3.2 12.9 0.00 0.00 0.00 69 1008.2
20260508221550 23 144 4.8 17.7 0.00 0.00 0.00 68 1008.1
20260508220053 23 91 6.4 16.1 0.00 0.00 0.00 68 1008.1
20260508214550 23 99 8.0 14.5 0.00 0.00 0.00 66 1008.3